Skip Page Navigation
NASA JPL Caltech
NASA Logo - Jet Propulsion Laboratory + View the NASA Portal
+ Near-Earth Object (NEO) Program
Search JPL
JPL Home Earth Solar System Stars & Galaxies Technology
JPL Solar System Dynamics
BODIES ORBITS EPHEMERIDES TOOLS PHYSICAL DATA DISCOVERY FAQ SITE MAP
JPL Small-Body Database Browser
Search: [ help ]  
162004 (1991 VE)
Classification: Aten [NEO]          SPK-ID: 2162004
Ephemeris | Orbit Diagram | Orbital Elements | Physical Parameters | Discovery Circumstances | Close-Approach Data ]

[ hide orbit diagram ]
Orbit Diagram
Note: Make sure you have Java enabled on your browser to see the applet. This applet is provided as a 3D orbit visualization tool. The applet was implemented using 2-body methods, and hence should not be used for determining accurate long-term trajectories (over several years or decades) or planetary encounter circumstances. For accurate long-term ephemerides, please instead use our Horizons system.
Orbit Viewer

Additional Notes: the orbits shown in the applet are color coded. The planets are white lines, and the asteroid/comet is a blue line. The bright white line indicates the portion of the orbit that is above the ecliptic plane, and the darker portion is below the ecliptic plane. Likewise for the asteroid/comet orbit, the light blue indicates the portion above the ecliptic plane, and the dark blue the portion below the ecliptic plane.

Orbit Viewer applet originally written and kindly provided by Osamu Ajiki (AstroArts), and further modified by Ron Baalke (JPL).


Orbital Elements at Epoch 2456400.5 (2013-Apr-18.0) TDB
Reference: JPL 114 (heliocentric ecliptic J2000)
 Element Value Uncertainty (1-sigma)   Units 
e .6646890862553915 8.0592e-08  
a .8906867085159913 7.2016e-09 AU
q .2986569740926748 7.0398e-08 AU
i 7.225581982772734 7.8413e-06 deg
node 61.94352300074377 2.5241e-05 deg
peri 193.5672489738369 2.6259e-05 deg
M 269.7741321609778 1.5902e-05 deg
tp 2456477.451032494451
(2013-Jul-03.95103249)
1.405e-05 JED
period 307.0335853951339
0.84
3.7237e-06
1.019e-08
d
yr
n 1.172510165416274 1.422e-08 deg/d
Q 1.482716442939308 1.1988e-08 AU
  Orbit Determination Parameters
   # obs. used (total)      641  
   data-arc span      21288 days (58.28 yr)  
   first obs. used      1954-11-24  
   last obs. used      2013-03-07  
   planetary ephem.      DE405  
   SB-pert. ephem.      SB405-CPV-2  
   condition code      0  
   fit RMS      .58269  
   data source      ORB  
   producer      Otto Matic  
   solution date      2013-Apr-29 15:47:49  

Additional Information
 Earth MOID = .0578048 AU 
 T_jup = 6.455 
[ show covariance matrix ]

Ephemeris | Orbit Diagram | Orbital Elements | Physical Parameters | Discovery Circumstances | Close-Approach Data ]

Physical Parameter Table
Parameter Symbol Value Units Sigma Reference Notes
absolute magnitude H 18.035 mag .65207 114 autocmod 2.5c

162004 (1991 VE)          Discovered 1991-Nov-03 by Helin, E. F., Lawrence, K. J. at Palomar (675)
Reference: 20070926/Numbers.arcLast Updated: 2007-09-30

[ show close-approach data ]
Alternate Designations
 1991 VE = 1997 WP23 
Ephemeris | Orbit Diagram | Orbital Elements | Physical Parameters | Discovery Circumstances | Close-Approach Data ]
ABOUT SSD CREDITS/AWARDS PRIVACY/COPYRIGHT GLOSSARY LINKS
FirstGov 2013-May-22 19:26 UT
(server date/time)  
NASA Home Page
Site Manager:   Donald K. Yeomans
Webmaster  Alan B. Chamberlin